www.pogodaiklimat.ru

Погода и климат >> Архив погоды >> Казахстан >> Актогай


ПОГОДА в Актогае

  • Прогноз погоды в Актогае
  • Монитор погоды в Актогае
  • Климат города

АРХИВ ПОГОДЫ в Актогае

Время (UTC), дата Ветер
(напр.,м/с)
 
Видим.   Явления Облачность Т
(С)
Тd
(С)
f
(%)
Тe
(С)
Тes
(С)
Комфортность P
(гПа)
Po
(гПа)
Тmin
(С)
Tmax
(С)
R
(мм)
R24
(мм)
S
(см)
00 14.11 СВ 1 н/о ясно -17.5 -19.7 83 -20 -20 1043.7 941.8
03 14.11 З 1 50 км 6/0
[Ac As]
-16.5 -19.1 80 -19 -19 1043.8 942.2 5
06 14.11 штиль 0 50 км 6/0
[Ac As]
-9.8 -14.3 70 -10 -8 1041.1 942.2 -17.6
09 14.11 штиль 0 50 км 6/0
[Ac und]
-8.1 -14.1 62 -8 -7 1041.3 943.0
12 14.11 штиль 0 н/о 6/0
[As op]
-11.0 -15.4 70 -11 -11 1043.5 944.0
15 14.11 штиль 0 н/о ясно -14.3 -18.1 73 -14 -14 1044.9 944.0 -7.9
18 14.11 штиль 0 н/о ясно -17.3 -20.7 75 -17 -17 1045.0 943.0 -7.9
21 14.11 штиль 0 н/о ясно -22.0 -25.1 76 -22 -22 1045.9 942.0
00 15.11 штиль 0 н/о ясно -23.1 -26.0 77 -23 -23 1046.5 942.1
03 15.11 СЗ 2 50 км ясно -20.2 -23.5 75 -26 -26 1046.2 943.0 5
06 15.11 СВ 2 50 км ясно -7.0 -10.7 75 -11 -9 1031.2 944.0 -23.1
09 15.11 С 3 50 км ясно -6.0 -9.8 74 -11 -10 1041.7 944.2
12 15.11 штиль 0 н/о ясно -8.6 -12.3 75 -9 -9 1043.5 944.9
15 15.11 СВ 3 н/о ясно -15.5 -18.5 78 -22 -22 1047.1 945.6 -5.7
18 15.11 штиль 0 н/о ясно -16.2 -18.8 80 -16 -16 1047.8 946.0 -5.7
21 15.11 СЗ 1 н/о ясно -17.3 -19.9 80 -20 -20 1048.0 945.7
00 16.11 СЗ 1 н/о ясно -18.6 -20.9 82 -21 -21 1048.5 945.7
03 16.11 штиль 0 50 км 3/0
[Ac trans]
-17.0 -19.6 80 -17 -17 1049.0 946.8 5
06 16.11 штиль 0 50 км ясно -8.5 -12.1 75 -9 -5 1045.1 946.4 -18.8
09 16.11 СЗ 2 50 км ясно -5.6 -9.3 75 -10 -8 1022.9 945.4
12 16.11 штиль 0 н/о ясно -12.0 -15.5 75 -12 -12 1030.9 945.4
15 16.11 штиль 0 н/о ясно -16.0 -19.2 76 -16 -16 1046.3 944.7 -5.2
18 16.11 штиль 0 н/о ясно -19.0 -21.6 80 -19 -19 1046.3 943.5 -5.2
21 16.11 штиль 0 н/о ясно -22.0 -24.1 83 -22 -22 1045.7 941.8
00 17.11 СЗ 1 н/о ясно -23.0 -25.1 83 -26 -26 1043.7 939.7
03 17.11 СЗ 1 50 км 5/0
[Ac trans]
-21.5 -23.9 81 -25 -25 1041.1 937.9 5
06 17.11 штиль 0 50 км 5/0
[Ac trans]
-14.6 -18.4 73 -15 -12 1036.1 936.0 -23.1
09 17.11 штиль 0 50 км ясно -6.1 -12.7 60 -7 -4 1030.6 934.0
12 17.11 штиль 0 н/о ясно -9.0 -14.8 63 -9 -9 1029.5 932.0
15 17.11 штиль 0 н/о ясно -14.1 -18.1 72 -14 -14 1030.4 931.0 -6.0
18 17.11 штиль 0 н/о 4/0
[Ac trans]
-17.0 -20.4 75 -17 -17 1030.5 930.0 -6.0
21 17.11 штиль 0 н/о ясно -20.4 -23.2 78 -20 -20 1032.1 930.2
00 18.11 СЗ 1 н/о 8/0
[Ac As]
-20.0 -23.3 75 -23 -23 1032.0 930.7
06 18.11 СЗ 3 20 км 10/10 600 м
[Sc]
-8.0 -11.0 79 -14 -14 1025.1 928.5 -20.4
09 18.11 СЗ 5 50 км 6/6 600 м
[Sc]
-5.0 -8.9 74 -12 -12 1024.8 929.2
12 18.11 СЗ 3 н/о 6/6 600 м
[Sc]
-6.0 -8.6 82 -12 -12 1027.3 931.1
15 18.11 штиль 0 н/о 8/8 600 м
[Sc]
-7.0 -9.0 86 -8 -8 1029.4 932.7 -4.9
18 18.11 З 2 н/о 10/10 600 м
[Sc]
-7.5 -9.6 85 -12 -12 1031.1 934.1 -4.9
21 18.11 СЗ 1 н/о 10/10 600 м
[Sc]
-7.8 -10.0 84 -10 -10 1032.3 935.0
00 19.11 С 1 н/о 10/10 600 м
[Sc]
-8.0 -11.1 78 -10 -10 1033.5 936.0
03 19.11 СВ 3 20 км 10/10 600 м
[Sc]
-7.0 -10.2 78 -13 -13 1034.7 937.5 5
06 19.11 штиль 0 50 км 8/8 1000 м
[Sc]
-5.0 -9.7 70 -6 -5 1035.0 938.5 -8.1
09 19.11 штиль 0 50 км ясно -7.0 -11.1 73 -8 -5 1035.5 938.2
12 19.11 ЮВ 5 н/о 8/8 600 м
[Sc]
-9.0 -12.1 78 -16 -16 1036.5 938.3
15 19.11 Ю 1 н/о ясно -6.6 -12.4 63 -9 -9 1035.3 938.1 -4.3
18 19.11 Ю 1 н/о ясно -7.0 -11.6 70 -9 -9 1034.4 937.2 -4.3
21 19.11 СЗ 1 н/о ясно -7.6 -11.4 74 -10 -10 1033.1 935.8
00 20.11 З 1 н/о ясно -8.3 -11.0 81 -11 -11 1032.0 934.6
06 20.11 штиль 0 50 км 8/0
[Ci fib]
-11.1 -13.9 80 -11 -8 1030.9 932.6 -17.7
09 20.11 Ю 2 50 км 8/0
[Ac und]
-8.0 -13.4 65 -12 -12 1028.0 931.0
12 20.11 ЮВ 1 н/о 8/0
[Ac und]
-11.7 -16.1 70 -14 -14 1028.3 930.0
15 20.11 Ю 3 н/о 8/0
[Ac und]
-13.0 -16.5 75 -19 -19 1028.8 930.0 -7.9
18 20.11 Ю 2 н/о 10/0
[Ac As]
-14.3 -17.4 77 -19 -19 1029.4 930.0 -7.9
21 20.11 Ю 3 н/о 10/0
[Ac As]
-15.0 -17.7 80 -22 -22 1029.6 930.0

 

Местоположение метеостанции Актогай (Карагандинская область, Казахстан): широта 48.30 долгота 74.97 высота над уровнем моря 780 м.

В архиве по умолчанию представлена погода в Актогае за последнюю неделю. Архивные данные за месяц целиком и за предыдущие месяцы, начиная с января 2011 года, Вы можете получить, выбрав интересующий диапазон дат из раскрывающегося списка и нажав кнопку "Ввод!".


*Определитесь, кто Вы:
робот инопланетянин человек

Внимание! Время в таблицах - всемирное. Для получения местного времени необходимо прибавить поправку, которая в Актогае равна 5 ч.

Смотрите также архив погоды в соседних городах и на ближайших метеорологических станциях:

Погода в Бектау-Ате (Карагандинская область, Казахстан) (95 км)
Погода в Аксу-Аюлы (Карагандинская область, Казахстан) (102 км)
Погода в Бесобе (Карагандинская область, Казахстан) (122 км)
Погода в Каркаралинске (Карагандинская область, Казахстан) (127 км)
Погода в Агадыре (Карагандинская область, Казахстан) (155 км)
Погода в Жарыке (Карагандинская область, Казахстан) (166 км)
Погода в Балхаше (Карагандинская область, Казахстан) (167 км)
Погода в Моинты (Карагандинская область, Казахстан) (170 км)
Погода в Егиндыбулаке (Карагандинская область, Казахстан) (195 км)
Погода в Кайнаре (Восточно-Казахстанская область, Казахстан) (202 км)

Пояснения к столбцам:

Ветер - указаны скорость ветра в м/с - средняя за 10 мин, порывы в срок и между сроками (в фигурных скобках) и направление, откуда дует ветер: С - северный, СВ - северо-восточный, В - восточный, ЮВ - юго-восточный, Ю - южный, ЮЗ - юго-западный, З - западный, СЗ - северо-западный.
Видимость - горизонтальная дальность видимости в метрах или километрах. При видимости от 1 до 10 км при отсутствии осадков обычно наблюдается дымка, при ухудшении видимости до 1 км и менее - туман. В сухую погоду видимость может ухудшаться дымом, пылью или мглою.
Явления - указаны атмосферные явления, наблюдавшиеся в срок или в последний час перед сроком; фигурными скобками обозначены явления, наблюдавшиеся между сроками (за 1-3 часа до срока); квадратными скобками обозначены град или гололедные отложения с указанием их диаметра в мм.
Облачность - указаны через наклонную черту общая и нижняя облачность в баллах и высота нижней границы облаков в метрах; квадратными скобками обозначены формы облаков: Ci - перистые, Cs - перисто-слоистые, Cc - перисто-кучевые, Ac - высококучевые, As - высокослоистые, Sc - слоисто-кучевые, Ns - слоисто-дождевые, Cu - кучевые, Cb - кучево-дождевые. Подробнее классификацию облаков см. в Атласе облаков (PDF).
T - Температура воздуха - температура, измеренная на высоте 2 м над землей.
Td - Температура точки росы - температура, при понижении до которой содержащийся в воздухе водяной пар достигнет насыщения.
f - Относительная влажность воздуха - влажноcть воздуха, измеренная на высоте 2 м над землей.
Te - Эффективная температура - температура, которую ощущает одетый по сезону человек в тени. Характеристика душности погоды. При расчете учитывается влияние влажности воздуха и скорости ветра на теплоощущения человека.
Tes - Эффективная температура на солнце - температура, которую ощущает человек, с поправкой на солнечный нагрев. Характеристика знойности погоды. Зависит от высоты солнца над горизонтом, облачности и скорости ветра. Ночью, в пасмурную погоду, а также при ветре 12 м/с и более поправка равна нулю.
P - Атмосферное давление - приведенное к уровню моря атмосферное давление.
Po - Атмосферное давление - измеренное на уровне метеостанции атмосферное давление.
Tmin - Минимальная температура - минимум температуры воздуха на высоте 2 м над землей.
Tmax - Максимальная температура - максимум температуры воздуха на высоте 2 м над землей.
R - Количество осадков - Количество выпавших осадков за период времени, мм. При наведении курсора мыши на число - период времени, за который выпало указанное количество осадков.
R24 - Количество осадков - Количество выпавших осадков за 24 часа, мм.
S - Снежный покров - Высота снежного покрова, см. При наведении курсора мыши на число - состояние снежного покрова и степень покрытия местности в баллах.